NOAA 16 DEB, 41128

Orbit data source: Space-Track

NOAA 16 DEB, 41128 is space debris in SSO originally from a launch on Thu, 21 Sep 2000 UTC launched from the Air Force Western Test Range (AFWTR). Debris objects in space refer to the collection of defunct objects orbiting the Earth. Examples of debris include non-operational satellites, rocket bodies, and fragments generated from explosions, collisions, or faulty payload assembly.

Loading next visibility...
Identifier
41128, 2000-055BK
Orbit
SSO
Country
Flag of USUS
Related business
Manufacturer
Unknown
Mission
Spacecraft
Bus & Motor
Unknown
Mass
Unknown
Launch date (UTC)
2000-09-21 (25 years ago)
Launch vehicle
Unknown
Launch site
Air Force Western Test Range (AFWTR)
Object type
Payload
Rocket body
Debris
Shape & HBR
Unknown shape, 0.1 m
Radar Cross Section
Small (<0.1 m²)

Expand to show TLE details & history
Last TLE update: 18 hours ago

TLE from 18 hours ago
0 NOAA 16 DEB
1 41128U 00055BK  25286.84648559  .00067917  00000-0  81412-2 0  9996
2 41128  98.9961 136.5125 0007904  55.7483 304.4475 14.83701595512126
Epoch: 2025-10-13T20:18Z
TLE epoch observation values (Epoch: 2025-10-13T20:18:56.354Z)
Latitude
-0.00007°
Longitude
169.1343°
Altitude
617.53 km
Speed
7.552 km/s
True Right ascension
09h 06m 03s
True Declination
0° 00' 00"
Sunlit
Object was in daylight at epoch
Visualization orbit readout
Latitude
Unknown
Longitude
Unknown
Altitude
Unknown
Speed
Unknown
Apparent Right ascension
Unknown
Apparent Declination
Unknown
Sunlit
N/A
Visualization observer readout
Local Sidereal Time
08:43:03
Azimuth
Unknown
Elevation
Unknown
Doppler factor
Unknown
Orbital elements
Apogee altitude
620.28 km
Perigee altitude
609.225 km
Semi-major axis
6,992.89 km
Eccentricity
0.00079
Inclination
98.9961°
RAAN
136.5125°
Arg. of periapsis
55.7483°
True anomaly
304.37277°
Mean anomaly
304.4475°
Eccentric anomaly
304.41014°
Mean motion
3.71157 °/min
Orbital period
96.99 mins
BSTAR
0.0081412
Loading maneuver chart data...
Computing Atmospheric mass density...

Documentation

Showing up to 5 results
|